Weather in Vasylivka

Ukraine / Dnipropetrovsk Region     48°15′16″N   34°59′41″E
temp.,
°C
wind,
m/s
gust,
m/s
humid.,
%
clouds,
%
prec.,
mm/h
press.,
hPa
HPBL,
m
14 april, wed
wed1400:00+8s36895 0.0 1021124
03:00+7sse229488 0.0 102040
06:00+6se3394100 0.0 101951
09:00+10se3376100 0.0 1019419
12:00+13sse3359100 0.0 10171047
15:00+13se3358100 0.0 10161030
18:00+14sse335712 0.0 1015892
21:00+10se34695 0.0 101559
15 april, thu
thu1500:00+8s3581100 0.0 1015110
03:00+7se3686100 0.0 1014160
06:00+7se379381 0.1 1014234
09:00+8sse4892100 1.4 1014401
12:00+10sse578297 0.9 1014608
15:00+14ssw676092 1.4 10121449
18:00+12ssw586391 0.3 10121146
21:00+9ssw5981100 0.4 1013546
16 april, fri
fri1600:00+7ssw598894 0.0 1014384
03:00+7ssw5888100 0.0 1014628
06:00+6s5989100 0.0 1014701
09:00+7ssw797794 0.1 1015857
12:00+11ssw81059100 0.1 10151607
15:00+9s7874100 0.6 10161147
18:00+11ssw575881 0.4 10161063
21:00+5wsw48815 0.4 1019284
17 april, sat
sat1700:00+4sw11878 0.0 101912
03:00+4s358685 0.0 102099
06:00+5s3589100 0.1 1020356
09:00+5sw2591100 0.2 1021630
12:00+6s2589100 0.3 1022526
15:00+10w246897 0.3 10211088
18:00+10wnw227089 0.0 1021451
21:00+8ene227995 0.0 102220
18 april, sun
sun1800:00+8ene3485100 0.1 1022113
03:00+7e3487100 0.1 1021107
06:00+7se2484100 0.0 102197
09:00+9ese2373100 0.0 1022260
12:00+13e335383 0.0 10211145
15:00+15e3443100 0.0 10201696
18:00+14ne5754100 0.0 1020455
21:00+10ne41072100 0.0 1020222